Tracking 26544 objects as of 9-Dec-2022
HD Live streaming from Space Station
objects crossing your sky now

STARLINK-4674

Track STARLINK-4674 now!
10-day predictions
STARLINK-4674 is classified as:


NORAD ID: 53591
Int'l Code: 2022-104D
Perigee: 546.1 km
Apogee: 548.3 km
Inclination: 53.2 °
Period: 95.4 minutes
Semi major axis: 6918 km
RCS: Unknown
Launch date: August 28, 2022
Source: United States (US)
Launch site: AIR FORCE EASTERN TEST RANGE (AFETR)
aabbcc
Your satellite tracking list
Your tracking list is empty




NASA's NSSDC Master Catalog

Two Line Element Set (TLE):
1 53591U 22104D   22342.80815117 -.00012484  00000-0 -76961-3 0  9999
2 53591  53.2179 172.3993 0001586 320.5195  39.5682 15.08746026 16785
Source of the keplerian elements: AFSPC